DW3798 Weather Reports


time (UTC)temp
C
wind
direction
speed
KPH
gust
KPH
rain 1hr
cm
rain 24hr
cm
rain mn
cm
humidity
%
barometer
mb
20260508200504 18 243 6.4 19.3 0.00 0.00 0.00 46 1010.8
20260508200023 18 239 8.0 16.1 0.00 0.00 0.00 45 1010.7
20260508195507 18 279 1.6 9.7 0.00 0.00 0.00 45 1010.6
20260508195007 18 260 4.8 12.9 0.00 0.00 0.00 45 1010.7
20260508194525 19 174 3.2 16.1 0.00 0.00 0.00 45 1010.7
20260508194007 19 269 4.8 17.7 0.00 0.00 0.00 43 1010.8
20260508193509 19 261 8.0 20.9 0.00 0.00 0.00 43 1010.7
20260508193028 19 248 6.4 22.5 0.00 0.00 0.00 42 1010.9
20260508192510 20 245 8.0 22.5 0.00 0.00 0.00 41 1011.0
20260508192012 20 296 8.0 20.9 0.00 0.00 0.00 41 1011.0
20260508191514 20 329 3.2 19.3 0.00 0.00 0.00 42 1011.2
20260508191004 20 249 6.4 22.5 0.00 0.00 0.00 41 1011.3
20260508190506 20 199 8.0 22.5 0.00 0.00 0.00 45 1011.4
20260508190027 20 256 4.8 22.5 0.00 0.00 0.00 46 1011.5
20260508185508 19 150 8.0 22.5 0.00 0.00 0.00 44 1011.6
20260508185008 19 263 8.0 17.7 0.00 0.00 0.00 45 1011.7
20260508184525 19 257 9.7 17.7 0.00 0.00 0.00 46 1011.7
20260508184008 19 229 9.7 20.9 0.00 0.00 0.00 46 1011.7
20260508183507 19 242 8.0 20.9 0.00 0.00 0.00 50 1011.7
20260508183025 18 229 3.2 12.9 0.00 0.00 0.00 49 1011.8
20260508182509 18 267 4.8 14.5 0.00 0.00 0.00 49 1011.8
20260508182014 18 282 6.4 20.9 0.00 0.00 0.00 47 1011.9
20260508181527 18 228 8.0 20.9 0.00 0.00 0.00 47 1012.0
20260508181018 18 317 1.6 12.9 0.00 0.00 0.00 48 1012.0
20260508180515 18 276 3.2 22.5 0.00 0.00 0.00 47 1012.1
20260508180018 18 281 4.8 22.5 0.00 0.00 0.00 47 1012.1
20260508175513 18 259 9.7 17.7 0.00 0.00 0.00 45 1012.1
20260508175011 18 254 6.4 19.3 0.00 0.00 0.00 45 1012.1
20260508174533 19 281 11.3 19.3 0.00 0.00 0.00 43 1012.2
20260508174013 20 267 9.7 24.1 0.00 0.00 0.00 42 1012.3
20260508173510 20 241 9.7 24.1 0.00 0.00 0.00 47 1012.4
20260508173023 20 277 11.3 22.5 0.00 0.00 0.00 43 1012.5
20260508172516 20 234 9.7 17.7 0.00 0.00 0.00 44 1012.5
20260508172012 20 228 8.0 17.7 0.00 0.00 0.00 44 1012.5
20260508171528 20 209 8.0 17.7 0.00 0.00 0.00 47 1012.6
20260508171010 20 170 8.0 17.7 0.00 0.00 0.00 45 1012.6
20260508170507 20 37 4.8 20.9 0.00 0.00 0.00 45 1012.7
20260508170032 20 248 8.0 20.9 0.00 0.00 0.00 48 1012.9
20260508165506 19 273 8.0 17.7 0.00 0.00 0.00 47 1013.0
20260508165011 19 300 4.8 14.5 0.00 0.00 0.00 49 1013.0
20260508164519 18 268 6.4 17.7 0.00 0.00 0.00 50 1013.1
20260508164006 18 265 4.8 17.7 0.00 0.00 0.00 51 1013.1
20260508163507 17 279 4.8 12.9 0.00 0.00 0.00 51 1013.3
20260508163038 17 273 4.8 14.5 0.00 0.00 0.00 1013.5
20260508162508 17 159 6.4 19.3 0.00 0.00 0.00 1013.5
20260508162013 17 178 8.0 19.3 0.00 0.00 0.00 1013.6
20260508161526 18 229 4.8 12.9 0.00 0.00 0.00 51 1013.7
20260508161012 17 155 4.8 12.9 0.00 0.00 0.00 51 1013.9
20260508160518 17 229 6.4 17.7 0.00 0.00 0.00 51 1013.9
20260508160027 17 236 4.8 19.3 0.00 0.00 0.00 52 1013.9
20260508155511 17 265 9.7 19.3 0.00 0.00 0.00 51 1013.9
20260508155012 17 208 9.7 14.5 0.00 0.00 0.00 50 1013.9
20260508154518 17 256 3.2 9.7 0.00 0.00 0.00 52 1014.0
20260508154011 17 190 3.2 16.1 0.00 0.00 0.00 50 1014.0
20260508153509 17 219 6.4 16.1 0.00 0.00 0.00 1013.9
20260508153028 17 207 4.8 17.7 0.00 0.00 0.00 54 1013.9
20260508152507 17 234 6.4 17.7 0.00 0.00 0.00 54 1013.9
20260508152010 16 234 4.8 14.5 0.00 0.00 0.00 52 1013.9
20260508151535 16 246 4.8 12.9 0.00 0.00 0.00 53 1013.9
20260508151008 16 149 3.2 11.3 0.00 0.00 0.00 53 1014.0
20260508150512 16 254 3.2 12.9 0.00 0.00 0.00 55 1014.1
20260508150030 16 219 4.8 19.3 0.00 0.00 0.00 52 1014.1
20260508145510 16 232 6.4 19.3 0.00 0.00 0.00 52 1014.1
20260508145009 16 246 8.0 17.7 0.00 0.00 0.00 52 1014.2
20260508144534 16 215 8.0 17.7 0.00 0.00 0.00 53 1014.1
20260508144011 16 286 8.0 14.5 0.00 0.00 0.00 53 1014.2
20260508143508 15 233 8.0 17.7 0.00 0.00 0.00 54 1014.3
20260508143020 15 269 8.0 19.3 0.00 0.00 0.00 53 1014.4
20260508142508 15 250 11.3 19.3 0.00 0.00 0.00 51 1014.5
20260508142013 15 248 8.0 17.7 0.00 0.00 0.00 54 1014.5
20260508141523 15 247 8.0 20.9 0.00 0.00 0.00 53 1014.6
20260508141010 15 274 9.7 20.9 0.00 0.00 0.00 52 1014.5
20260508140517 15 232 3.2 16.1 0.00 0.00 0.00 51 1014.5
20260508140030 15 273 4.8 17.7 0.00 0.00 0.00 54 1014.5
20260508135515 15 259 9.7 17.7 0.00 0.00 0.00 52 1014.6
20260508135016 15 280 4.8 12.9 0.00 0.00 0.00 53 1014.7
20260508134535 14 261 6.4 14.5 0.00 0.00 0.00 53 1014.6
20260508134009 14 294 4.8 14.5 0.00 0.00 0.00 55 1014.6
20260508133518 13 200 8.0 19.3 0.00 0.00 0.00 53 1014.5
20260508133030 13 235 6.4 19.3 0.00 0.00 0.00 55 1014.5
20260508132506 13 173 4.8 12.9 0.00 0.00 0.00 55 1014.5
20260508132011 13 194 4.8 16.1 0.00 0.00 0.00 57 1014.5
20260508131524 13 284 3.2 16.1 0.00 0.00 0.00 56 1014.4
20260508131008 12 225 3.2 9.7 0.00 0.00 0.00 57 1014.4
20260508130508 12 236 4.8 9.7 0.00 0.00 0.00 56 1014.4
20260508130025 12 254 3.2 16.1 0.00 0.00 0.00 57 1014.4
20260508125509 12 246 4.8 16.1 0.00 0.00 0.00 56 1014.4
20260508125008 12 278 8.0 14.5 0.00 0.00 0.00 57 1014.4
20260508124528 12 290 3.2 11.3 0.00 0.00 0.00 60 1014.5
20260508124011 11 242 3.2 11.3 0.00 0.00 0.00 60 1014.4
20260508123514 11 181 3.2 6.4 0.00 0.00 0.00 61 1014.5
20260508123035 11 221 0.0 9.7 0.00 0.00 0.00 62 1014.4
20260508122511 11 153 1.6 9.7 0.00 0.00 0.00 61 1014.4
20260508122016 11 192 3.2 9.7 0.00 0.00 0.00 63 1014.5
20260508121530 10 180 3.2 8.0 0.00 0.00 0.00 65 1014.5
20260508121003 10 238 1.6 6.4 0.00 0.00 0.00 65 1014.5
20260508120503 10 153 1.6 8.0 0.00 0.00 0.00 65 1014.4
20260508120005 10 150 1.6 8.0 0.00 0.00 0.00 66 1014.3
20260508115505 9 267 1.6 8.0 0.00 0.00 0.00 66 1014.3
20260508115003 9 225 1.6 8.0 0.00 0.00 0.00 67 1014.2
20260508114509 8 175 3.2 9.7 0.00 0.00 0.00 68 1014.1
20260508114004 8 232 3.2 9.7 0.00 0.00 0.00 68 1014.2
20260508113505 8 221 1.6 9.7 0.00 0.00 0.00 69 1014.2
20260508113014 8 155 1.6 8.0 0.00 0.00 0.00 70 1014.1
20260508112505 7 157 3.2 8.0 0.00 0.00 0.00 70 1014.0
20260508112006 7 171 1.6 8.0 0.00 0.00 0.00 70 1014.1
20260508111503 7 175 1.6 6.4 0.00 0.00 0.00 70 1014.0
20260508111003 7 239 1.6 6.4 0.00 0.00 0.00 70 1014.0
20260508110503 7 170 0.0 6.4 0.00 0.00 0.00 70 1013.9
20260508110004 7 197 3.2 6.4 0.00 0.00 0.00 70 1014.0
20260508105503 7 165 3.2 6.4 0.00 0.00 0.00 70 1013.9
20260508105004 7 142 3.2 8.0 0.00 0.00 0.00 70 1013.9
20260508104505 7 182 1.6 8.0 0.00 0.00 0.00 71 1013.9
20260508104003 7 176 1.6 6.4 0.00 0.00 0.00 71 1013.9
20260508103504 7 175 1.6 6.4 0.00 0.00 0.00 71 1013.9
20260508103012 6 225 1.6 8.0 0.00 0.00 0.00 71 1013.9
20260508102504 6 147 1.6 8.0 0.00 0.00 0.00 71 1013.8
20260508102006 6 163 0.0 8.0 0.00 0.00 0.00 71 1013.7
20260508101529 6 188 1.6 6.4 0.00 0.00 0.00 71 1013.7
20260508101007 6 185 1.6 6.4 0.00 0.00 0.00 71 1013.8
20260508100506 6 171 0.0 4.8 0.00 0.00 0.00 71 1013.8
20260508100005 6 171 1.6 6.4 0.00 0.00 0.00 71 1013.8
20260508095503 6 167 1.6 6.4 0.00 0.00 0.00 71 1013.8
20260508095003 6 193 0.0 8.0 0.00 0.00 0.00 71 1013.8
20260508094503 6 182 1.6 8.0 0.00 0.00 0.00 71 1013.8
20260508094003 6 142 0.0 4.8 0.00 0.00 0.00 71 1013.9
20260508093504 6 188 0.0 3.2 0.00 0.00 0.00 71 1014.0
20260508093015 6 177 0.0 6.4 0.00 0.00 0.00 70 1013.9
20260508092506 6 232 1.6 6.4 0.00 0.00 0.00 70 1013.9
20260508092004 6 261 1.6 6.4 0.00 0.00 0.00 70 1013.7
20260508091516 6 191 1.6 6.4 0.00 0.00 0.00 70 1013.8
20260508091009 6 192 1.6 3.2 0.00 0.00 0.00 70 1013.9
20260508090505 6 169 0.0 4.8 0.00 0.00 0.00 70 1013.9
20260508090028 6 174 1.6 4.8 0.00 0.00 0.00 70 1013.9
20260508085506 6 173 1.6 4.8 0.00 0.00 0.00 69 1013.9
20260508085002 6 197 1.6 3.2 0.00 0.00 0.00 69 1013.9
20260508084504 6 169 0.0 3.2 0.00 0.00 0.00 69 1013.9
20260508084003 7 192 0.0 3.2 0.00 0.00 0.00 69 1013.9
20260508083502 7 198 0.0 3.2 0.00 0.00 0.00 69 1014.0
20260508083004 6 252 0.0 6.4 0.00 0.00 0.00 69 1014.0
20260508082502 7 285 0.0 6.4 0.00 0.00 0.00 68 1013.9
20260508082007 7 246 1.6 4.8 0.00 0.00 0.00 68 1013.9
20260508081511 7 246 0.0 3.2 0.00 0.00 0.00 69 1013.9
20260508081002 7 249 0.0 3.2 0.00 0.00 0.00 69 1013.9
20260508080513 7 179 0.0 3.2 0.00 0.00 0.00 68 1013.8
20260508080023 7 149 0.0 3.2 0.00 0.00 0.00 68 1013.8
20260508075508 7 111 0.0 3.2 0.00 0.00 0.00 67 1013.8
20260508075008 7 143 0.0 3.2 0.00 0.00 0.00 67 1013.8
20260508074523 7 166 1.6 3.2 0.00 0.00 0.00 67 1013.8
20260508074007 7 193 0.0 3.2 0.00 0.00 0.00 66 1013.8
20260508073505 7 139 0.0 3.2 0.00 0.00 0.00 66 1013.8
20260508073005 7 259 0.0 8.0 0.00 0.00 0.00 66 1013.9
20260508072502 7 291 1.6 8.0 0.00 0.00 0.00 66 1013.9
20260508072003 7 246 1.6 4.8 0.00 0.00 0.00 66 1013.9
20260508071508 7 313 1.6 4.8 0.00 0.00 0.00 66 1014.0
20260508071002 7 263 0.0 6.4 0.00 0.00 0.00 66 1013.9
20260508070502 7 228 0.0 6.4 0.00 0.00 0.00 65 1014.0
20260508070012 7 186 1.6 11.3 0.00 0.00 0.00 65 1014.0
20260508065502 7 261 1.6 11.3 0.00 0.00 0.00 65 1014.1
20260508065003 7 266 1.6 9.7 0.00 0.00 0.00 66 1014.2
20260508064514 7 207 1.6 9.7 0.00 0.00 0.00 66 1014.1
20260508064007 7 239 1.6 6.4 0.00 0.00 0.00 66 1014.2
20260508063512 7 28 1.6 6.4 0.00 0.00 0.00 66 1014.2
20260508063024 7 270 1.6 6.4 0.00 0.00 0.00 66 1014.2
20260508062502 7 200 0.0 4.8 0.00 0.00 0.00 67 1014.2
20260508062003 8 169 0.0 4.8 0.00 0.00 0.00 66 1014.1
20260508061506 8 169 0.0 3.2 0.00 0.00 0.00 66 1014.1
20260508061006 8 360 0.0 3.2 0.00 0.00 0.00 66 1014.2
20260508060503 8 205 0.0 9.7 0.00 0.00 0.00 67 1014.2
20260508060010 8 236 0.0 9.7 0.00 0.00 0.00 64 1014.2
20260508055503 8 211 0.0 8.0 0.00 0.00 0.00 63 1014.2
20260508055006 8 143 1.6 6.4 0.00 0.00 0.00 63 1014.3
20260508054514 8 182 1.6 8.0 0.00 0.00 0.00 62 1014.2
20260508054003 8 144 1.6 8.0 0.00 0.00 0.00 61 1014.3
20260508053506 8 200 3.2 8.0 0.00 0.00 0.00 60 1014.2
20260508053020 8 147 3.2 6.4 0.00 0.00 0.00 60 1014.2
20260508052508 9 196 3.2 11.3 0.00 0.00 0.00 60 1014.3
20260508052008 9 163 3.2 11.3 0.00 0.00 0.00 60 1014.3
20260508051524 9 167 1.6 8.0 0.00 0.00 0.00 61 1014.4
20260508051003 9 191 1.6 12.9 0.00 0.00 0.00 61 1014.4
20260508050503 9 153 3.2 12.9 0.00 0.00 0.00 61 1014.3
20260508050006 8 165 3.2 11.3 0.00 0.00 0.00 62 1014.3
20260508045503 8 238 3.2 11.3 0.00 0.00 0.00 62 1014.3
20260508045004 8 195 1.6 8.0 0.00 0.00 0.00 62 1014.4
20260508044514 8 188 1.6 8.0 0.00 0.00 0.00 62 1014.4
20260508044004 8 191 1.6 6.4 0.00 0.00 0.00 63 1014.4
20260508043505 8 179 1.6 6.4 0.00 0.00 0.00 63 1014.3
20260508043017 8 156 0.0 6.4 0.00 0.00 0.00 62 1014.4
20260508042507 9 200 1.6 6.4 0.00 0.00 0.00 62 1014.4
20260508042006 9 182 1.6 4.8 0.00 0.00 0.00 62 1014.4
20260508041530 9 178 1.6 6.4 0.00 0.00 0.00 61 1014.4
20260508041009 9 221 1.6 6.4 0.00 0.00 0.00 61 1014.4
20260508040516 9 163 1.6 8.0 0.00 0.00 0.00 61 1014.3
20260508040009 9 174 1.6 8.0 0.00 0.00 0.00 61 1014.3
20260508035504 8 185 1.6 8.0 0.00 0.00 0.00 61 1014.3
20260508035004 8 161 1.6 8.0 0.00 0.00 0.00 61 1014.3
20260508034515 8 191 3.2 8.0 0.00 0.00 0.00 61 1014.2
20260508034004 8 194 1.6 9.7 0.00 0.00 0.00 61 1014.3
20260508033504 8 188 3.2 9.7 0.00 0.00 0.00 61 1014.3
20260508033019 8 159 3.2 8.0 0.00 0.00 0.00 62 1014.3
20260508032510 8 155 1.6 4.8 0.00 0.00 0.00 63 1014.3
20260508032008 8 180 0.0 6.4 0.00 0.00 0.00 62 1014.3
20260508031519 8 201 0.0 6.4 0.00 0.00 0.00 62 1014.4
20260508031010 8 168 1.6 6.4 0.00 0.00 0.00 63 1014.2
20260508030507 8 170 1.6 6.4 0.00 0.00 0.00 63 1014.2
20260508030034 8 168 1.6 6.4 0.00 0.00 0.00 64 1014.3
20260508025511 8 164 1.6 6.4 0.00 0.00 0.00 67 1014.2
20260508025009 7 158 1.6 6.4 0.00 0.00 0.00 68 1014.2
20260508024505 7 162 1.6 3.2 0.00 0.00 0.00 71 1014.1
20260508024004 7 163 1.6 3.2 0.00 0.00 0.00 72 1014.1
20260508023504 7 159 1.6 3.2 0.00 0.00 0.00 73 1014.2
20260508023021 7 161 1.6 1.6 0.00 0.00 0.00 75 1014.1
20260508022504 7 148 0.0 3.2 0.00 0.00 0.00 74 1014.2
20260508022004 7 148 0.0 3.2 0.00 0.00 0.00 74 1014.2
20260508021517 7 148 1.6 3.2 0.00 0.00 0.00 74 1014.2
20260508021004 7 142 0.0 3.2 0.00 0.00 0.00 74 1014.2
20260508020510 7 135 0.0 3.2 0.00 0.00 0.00 74 1014.2
20260508020021 7 163 0.0 3.2 0.00 0.00 0.00 76 1014.2
20260508015507 7 188 0.0 0.0 0.00 0.00 0.00 77 1014.3
20260508015009 7 232 0.0 0.0 0.00 0.00 0.00 77 1014.3
20260508014532 7 232 0.0 0.0 0.00 0.00 0.00 76 1014.4
20260508014010 8 232 0.0 0.0 0.00 0.00 0.00 75 1014.4
20260508013503 8 232 0.0 0.0 0.00 0.00 0.00 73 1014.3
20260508013009 8 232 0.0 0.0 0.00 0.00 0.00 72 1014.4
20260508012504 8 232 0.0 0.0 0.00 0.00 0.00 70 1014.3
20260508012004 8 232 0.0 0.0 0.00 0.00 0.00 69 1014.2
20260508011516 9 232 0.0 0.0 0.00 0.00 0.00 68 1014.2
20260508011005 9 232 0.0 0.0 0.00 0.00 0.00 67 1014.3
20260508010504 10 232 0.0 0.0 0.00 0.00 0.00 65 1014.3
20260508010035 10 232 0.0 0.0 0.00 0.00 0.00 64 1014.3
20260508005507 10 232 0.0 0.0 0.00 0.00 0.00 64 1014.3
20260508005013 11 232 0.0 3.2 0.00 0.00 0.00 63 1014.3
20260508004532 11 255 0.0 3.2 0.00 0.00 0.00 62 1014.3
20260508004010 11 275 0.0 3.2 0.00 0.00 0.00 60 1014.2
20260508003517 12 285 0.0 3.2 0.00 0.00 0.00 56 1014.2
20260508003028 12 285 0.0 3.2 0.00 0.00 0.00 51 1014.2
20260508002510 12 285 0.0 1.6 0.00 0.00 0.00 50 1014.1
20260508002006 12 285 0.0 3.2 0.00 0.00 0.00 50 1014.1
20260508001523 12 285 0.0 4.8 0.00 0.00 0.00 46 1014.1
20260508001004 12 266 0.0 6.4 0.00 0.00 0.00 45 1013.9
20260508000505 13 273 1.6 6.4 0.00 0.00 0.00 44 1013.9
20260508000021 13 251 1.6 6.4 0.00 0.00 0.00 42 1013.8
20260507235507 13 281 1.6 6.4 0.00 0.00 0.00 43 1013.7
20260507235005 13 256 1.6 9.7 0.00 0.00 0.00 42 1013.8
20260507234520 13 279 3.2 8.0 0.00 0.00 0.00 41 1013.7
20260507234007 13 271 3.2 11.3 0.00 0.00 0.00 41 1013.7
20260507233509 14 284 3.2 11.3 0.00 0.00 0.00 39 1013.7
20260507233028 15 245 4.8 6.4 0.00 0.00 0.00 39 1013.8
20260507232507 15 291 3.2 6.4 0.00 0.00 0.00 38 1013.7
20260507232017 15 284 1.6 4.8 0.00 0.00 0.00 38 1013.8
20260507231527 15 317 1.6 4.8 0.00 0.00 0.00 38 1013.7
20260507231004 15 309 1.6 8.0 0.00 0.00 0.00 39 1013.8
20260507230505 15 283 4.8 8.0 0.00 0.00 0.00 39 1013.7
20260507230014 15 257 1.6 6.4 0.00 0.00 0.00 39 1013.7
20260507225505 15 244 0.0 6.4 0.00 0.00 0.00 39 1013.7
20260507225005 15 299 1.6 11.3 0.00 0.00 0.00 38 1013.7
20260507224528 15 282 4.8 11.3 0.00 0.00 0.00 39 1013.6
20260507224004 15 298 4.8 11.3 0.00 0.00 0.00 38 1013.6
20260507223507 15 280 3.2 6.4 0.00 0.00 0.00 38 1013.7
20260507223025 15 246 1.6 12.9 0.00 0.00 0.00 38 1013.8
20260507222509 15 263 6.4 12.9 0.00 0.00 0.00 38 1013.8
20260507222011 15 275 3.2 17.7 0.00 0.00 0.00 38 1013.9
20260507221534 15 279 3.2 17.7 0.00 0.00 0.00 38 1014.0
20260507221010 15 323 4.8 16.1 0.00 0.00 0.00 39 1014.0
20260507220514 15 298 8.0 14.5 0.00 0.00 0.00 39 1014.0
20260507220032 16 249 4.8 12.9 0.00 0.00 0.00 39 1014.1
20260507215507 16 279 1.6 11.3 0.00 0.00 0.00 39 1014.1
20260507215004 16 306 1.6 16.1 0.00 0.00 0.00 38 1014.0
20260507214521 16 284 3.2 16.1 0.00 0.00 0.00 39 1014.1
20260507214005 16 249 3.2 14.5 0.00 0.00 0.00 41 1014.1
20260507213509 15 349 3.2 9.7 0.00 0.00 0.00 42 1014.1
20260507213030 15 225 1.6 9.7 0.00 0.00 0.00 43 1014.1
20260507212506 15 312 1.6 11.3 0.00 0.00 0.00 42 1014.2
20260507212011 15 45 1.6 11.3 0.00 0.00 0.00 39 1014.1
20260507211527 15 291 3.2 11.3 0.00 0.00 0.00 39 1014.1
20260507211010 15 242 1.6 12.9 0.00 0.00 0.00 1014.1
20260507210512 16 291 3.2 17.7 0.00 0.00 0.00 40 1014.1
20260507210051 16 275 3.2 17.7 0.00 0.00 0.00 40 1014.1
20260507205513 15 344 6.4 22.5 0.00 0.00 0.00 39 1014.0
20260507205004 16 338 3.2 22.5 0.00 0.00 0.00 41 1014.0
20260507204515 15 261 4.8 16.1 0.00 0.00 0.00 40 1014.0
20260507204004 15 130 3.2 16.1 0.00 0.00 0.00 39 1014.2
20260507203511 15 271 4.8 16.1 0.00 0.00 0.00 40 1014.2
20260507203023 15 298 6.4 17.7 0.00 0.00 0.00 40 1014.1
20260507202506 15 287 6.4 17.7 0.00 0.00 0.00 40 1014.1
20260507202009 15 352 3.2 12.9 0.00 0.00 0.00 42 1014.0
20260507201529 15 286 3.2 12.9 0.00 0.00 0.00 38 1014.0
20260507201011 15 323 4.8 14.5 0.00 0.00 0.00 39 1014.1